Terug naar catalogus

STARLINK-4435

ActiefCommunicatieSSO
NORAD 53502·PAYLOAD·🇺🇸 United States

Gelanceerd Aug 12, 2022 vanaf Vandenberg Space Force Base

Loading…

Volgende Passages (komende 24 uur)

TLE

VersSource: CelesTrak SupGP

Epoch: Sep 14, 2026, 22:01 UTC

1 53502C 22099AP  26257.91784722 -.00038713  00000+0 -10740-2 0  2573
2 53502  97.4975  26.3537 0001044  96.6612 250.4761 15.36993759    16

Volg STARLINK-4435 in realtime met AllMySat

Download on the App Store